Location: Stanford
(52.2833°N, 2.4333°W)
Time: 18:39:27
(UTC+00:00)

USA-17 - Pass Details

Date: 22 January 2021
Orbit: 389 x 1775 km, 63.3° (Epoch: 26 February)

Event Time Altitude Azimuth Distance (km) Brightness Sun altitude
Rises 17:29:09 0° 230° (SW) 2,637 10.0 -7.7°
Reaches altitude 10° 17:31:30 10° 232° (SW) 1,620 8.7 -8.0°
Maximum altitude 17:34:56 71° 317° (NW) 442 4.4 -8.5°
Enters shadow 17:37:55 10° 43° (NE) 1,411 6.4 -8.9°
